[Date Prev][Date Next][Thread Prev][Thread Next] - [Date Index][Thread Index][Author Index]
2 Line ISS Keps 2-5
- Subject: [sarex] 2 Line ISS Keps 2-5
- From: "Dave Larsen PhD" <doc@xxxxxxxxxxx>
- Date: Thu, 5 Feb 2004 00:32:31 -0800
ISS
1 25544U 98067A 04036.21662571 .00015939 00000-0 15270-3 0 1282
2 25544 51.6302 282.6409 0007629 129.4425 16.3384 15.66819375297454
----
Via the sarex mailing list at AMSAT.ORG courtesy of AMSAT-NA.
To unsubscribe, send "unsubscribe sarex" to Majordomo@amsat.org
AMSAT Home